Weather Roundup
Issued by NWS Chicago, IL

Home | Current Version | Previous Version | Text Only | Print | Product List | Glossary Off
Versions: 1 2 3 4 5 6 7 8 9 10 11 12 13 14 15 16 17 18 19 20 21 22 23 24 25 26 27 28 29 30 31 32 33 34 35 36 37 38 39 40 41 42 43 44 45 46 47 48 49 50

000
NZUS59 KLOT 040202
HRRLOT

CHICAGO AREA WEATHER ROUNDUP
NATIONAL WEATHER SERVICE CHICAGO/ROMEOVILLE IL
900 PM CDT MON AUG 03 2015

NOTE: "FAIR" INDICATES FEW OR NO CLOUDS BELOW 12,000 FEET WITH NO
SIGNIFICANT WEATHER AND/OR OBSTRUCTIONS TO VISIBILITY.

* THESE STATIONS ARE NOT UNDER NWS QUALITY CONTROL. THEY ALSO MAY NOT
  REPORT WEATHER SUCH AS PRECIPITATION OR FOG.

ILZ005-006-012>014-019>023-040300-
NORTHEAST ILLINOIS

CITY           SKY/WX    TMP DP  RH WIND       PRES   REMARKS
OHARE          PTCLDY    73  52  47 W8        29.88R
MIDWAY         PTCLDY    76  51  41 W5        29.88R
AURORA         CLEAR     65  58  78 W5        29.90R
WAUKEGAN       PTCLDY    68  54  60 CALM      29.87R
DUPAGE AIRPORT CLEAR     70  54  56 W5        29.89R
WHEELING       CLEAR     75  49  39 W5        29.89R
NORTHERLY IS     N/A     77  49  37 W8          N/A
$$

WIZ051-052-058>065-066-070>072-040300-
SOUTHEAST WISCONSIN

CITY           SKY/WX    TMP DP  RH WIND       PRES   REMARKS
MILWAUKEE      PTCLDY    75  49  39 W7        29.86R
KENOSHA*       CLEAR     66  55  67 W3        29.87R
RACINE*        CLEAR     70  52  52 SW3       29.88R
WAUKESHA       CLEAR     70  50  49 W9        29.88R
$$

INZ001>003-010>013-019-020-040300-
NORTHWEST INDIANA

CITY           SKY/WX    TMP DP  RH WIND       PRES   REMARKS
GARY*          CLEAR     64  61  88 CALM      29.89R
MICHIGAN CITY* NOT AVBL
RENSSELAER*    NOT AVBL
$$

LMZ740>746-040300-
SOUTHERN LAKE MICHIGAN

STATION/POSITION TIME  SKY/WX   TEMP WIND        PRES    VSBY
                                AIR  DIR/SP/G
                 (UTC)          (F)  (DEG/KT/KT) (MB)    (MI)
HARRISON CRIB    0100            78  300/ 15/ 18   N/A
BURNHAM HARBOR   0200            77  310/  4/ 13   N/A
CALUMET HARBOR   0100            77  250/  3/  9   N/A
BURNS HARBOR     0100            76  100/  2/  3 1011.9R
MICHIGAN CITY    0100            75  320/  1/  1   N/A
$$

ABBREVIATIONS USED IN REMARKS
   TC - TEMPERATURE IN CELSIUS
  WCI - WIND CHILL INDEX
   HX - HEAT INDEX
  VSB - VISIBILITY
$$



USA.gov is the U.S. government's official web portal to all federal, state and local government web resources and services.